METLOCID,DATE_TIME,AVG_AIRT3M,STDDEV_AIRT3M,MIN_AIRT3M,MAX_AIRT3M,N_AIRT3M,AVG_AIRTDEL3M1,STDDEV_AIRTDEL3M1,MIN_AIRTDEL3M1,MAX_AIRTDEL3M1,N_AIRTDEL3M1
HOEM,11/1/87,-4.543406114,3.22464206,-12.62,3.19,229,,,,,0
HOEM,12/1/87,0.115913978,2.383203912,-5.8,6.52,372,,,,,0
HOEM,1/1/88,-0.622204301,2.394278328,-6.23,6.66,372,,,,,0
HOEM,2/1/88,-8.306522989,6.622598742,-21.54,9.91,348,,,,,0
HOEM,3/1/88,-20.76814516,5.596012062,-32.29,-7.15,372,,,,,0
HOEM,4/1/88,-22.30694444,7.924788239,-36.65,-5.51,360,,,,,0
HOEM,5/1/88,-22.16370968,6.676555328,-35.27,-8.06,372,,,,,0
HOEM,6/1/88,-22.58969444,7.829654163,-36.14,-7.59,360,,,,,0
HOEM,7/1/88,-26.94913978,7.256185153,-39.43,-4.86,372,,,,,0
HOEM,8/1/88,-19.11647849,7.964444419,-36.07,-1.93,372,,,,,0
HOEM,9/1/88,-22.61608333,6.534146601,-35.17,-8.92,360,,,,,0
HOEM,10/1/88,-11.87330645,6.981598345,-30.22,-0.2,372,,,,,0
HOEM,11/1/88,-7.175277778,4.953515387,-20,3.86,360,,,,,0
HOEM,12/1/88,-2.233130435,2.36833786,-9.05,4.52,230,,,,,0
HOEM,1/1/89,-1.60655914,1.999129808,-6.75,3.5,186,,,,,0
HOEM,2/1/89,-9.762619048,3.994447229,-23.83,-2.1,168,,,,,0
HOEM,3/1/89,-16.83790323,4.092873359,-27.84,-7.53,186,,,,,0
HOEM,4/1/89,-20.77883333,10.02563041,-40.93,0.19,180,,,,,0
HOEM,5/1/89,-27.19634409,7.017179041,-39.4,-9.69,186,,,,,0
HOEM,6/1/89,-33.28761111,6.480344011,-41.89,-17.41,180,,,,,0
HOEM,7/1/89,-24.93392473,6.771535909,-42.8,-8.8,186,,,,,0
HOEM,8/1/89,-29.36612903,8.850946693,-43.48,-0.52,186,,,,,0
HOEM,9/1/89,-24.38205556,10.13341895,-39.74,-3.58,180,,,,,0
HOEM,10/1/89,-15.29053763,4.401337233,-28.57,-5.5,186,,,,,0
HOEM,11/1/89,-7.571611111,3.885047854,-19.93,0.06,180,,,,,0
HOEM,12/1/89,-1.170698925,2.001897491,-7.13,3.87,186,,,,,0
HOEM,1/1/90,-1.742903226,1.797844103,-7.89,2.31,186,,,,,0
HOEM,2/1/90,-9.41,3.863869024,-19.51,-2.25,168,,,,,0
HOEM,3/1/90,-17.15833333,6.105595742,-29.33,-3.52,186,,,,,0
HOEM,4/1/90,-22.86916667,8.042021194,-38.93,-6.64,180,,,,,0
HOEM,5/1/90,-25.00365591,7.129570592,-37.3,-7.26,186,,,,,0
HOEM,6/1/90,-26.16205556,7.816799035,-39.03,-7.1,180,,,,,0
HOEM,7/1/90,-28.11763441,5.947092571,-43.14,-8.36,186,,,,,0
HOEM,8/1/90,-29.86086022,9.462969496,-47.71,-8.42,186,,,,,0
HOEM,9/1/90,-29.41544444,7.075809078,-39,-10.45,180,,,,,0
HOEM,10/1/90,-19.90913978,6.157942032,-34.14,-4.22,186,,,,,0
HOEM,11/1/90,-6.997722222,6.652954637,-19.46,5.83,180,,,,,0
HOEM,12/1/90,-0.821505376,3.905117072,-12.34,4.95,186,,,,,0
HOEM,1/1/91,-1.708978495,2.410083666,-7.67,3.38,186,,,,,0
HOEM,2/1/91,-4.97327381,2.362410344,-12.84,0.35,168,,,,,0
HOEM,3/1/91,-18.55129032,6.197793457,-31.64,-6.66,186,,,,,0
HOEM,4/1/91,-21.2845,6.850380186,-33.43,-7.08,180,,,,,0
HOEM,5/1/91,-26.19021505,9.523220666,-40.35,-3.3,186,,,,,0
HOEM,6/1/91,-22.15933333,8.232460115,-34.51,-2.01,180,,,,,0
HOEM,7/1/91,-28.16403226,7.066514059,-40.77,-8.94,186,,,,,0
HOEM,8/1/91,-29.16037634,6.036480393,-40.15,-12.55,186,,,,,0
HOEM,9/1/91,-20.80222222,8.53846666,-36.22,-4.99,180,,,,,0
HOEM,10/1/91,-18.13327957,4.813293809,-28.49,-4.16,186,,,,,0
HOEM,11/1/91,-7.387222222,4.047630668,-18.97,-1.72,180,,,,,0
HOEM,12/1/91,-0.143010753,2.337965984,-5.52,5.83,186,,,,,0
HOEM,1/1/92,-1.841236559,2.476637231,-8.25,4.2,186,,,,,0
HOEM,2/1/92,-9.926436782,3.950447542,-21.4,-1.82,174,,,,,0
HOEM,3/1/92,-16.28602151,6.92531387,-31.96,-0.38,186,,,,,0
HOEM,4/1/92,-26.84422222,6.662302851,-36.09,-10.03,180,,,,,0
HOEM,5/1/92,-26.75892473,5.237399285,-36,-8.31,186,,,,,0
HOEM,6/1/92,-27.07766667,7.680222813,-36.27,-8.35,180,,,,,0
HOEM,7/1/92,-22.91946237,6.751730648,-34.18,-5.65,186,,,,,0
HOEM,8/1/92,-27.4305914,9.389940458,-43.5,-4.74,186,,,,,0
HOEM,9/1/92,-25.24772222,10.5585805,-42.05,-1.04,180,,,,,0
HOEM,10/1/92,-20.66048387,7.011645547,-36.88,-3.86,186,,,,,0
HOEM,11/1/92,-8.450722222,4.840836073,-20.87,3.44,180,,,,,0
HOEM,12/1/92,-2.530540541,2.201674691,-6.77,2.99,185,,,,,0
HOEM,1/1/93,-1.782688172,2.291147778,-6.82,3.84,186,,,,,0
HOEM,2/1/93,-7.105654762,2.860727607,-13.63,1.15,168,,,,,0
HOEM,3/1/93,-17.63537634,8.426058623,-30.82,3.96,186,,,,,0
HOEM,4/1/93,-21.52744444,7.504206427,-34.06,-6.07,180,,,,,0
HOEM,5/1/93,-29.76774194,6.597569516,-40.54,-12.23,186,,,,,0
HOEM,6/1/93,-22.97605556,8.411231484,-39.53,-7.38,180,,,,,0
HOEM,7/1/93,-22.87080645,6.557046294,-35.93,-9.59,186,,,,,0
HOEM,8/1/93,-32.77827957,8.794744761,-45.45,-4.27,186,,,,,0
HOEM,9/1/93,-25.57344444,6.731214897,-37.57,-9.48,180,,,,,0
HOEM,10/1/93,-21.24268817,9.220826385,-35.65,-3.93,186,,,,,0
HOEM,11/1/93,-8.096444444,4.499400658,-20.25,0.17,180,,,,,0
HOEM,12/1/93,-3.21604505,2.266274874,-8.41,4.71,1909,0.258088468,0.592343474,-3.98,2.03,1899
HOEM,1/1/94,-0.697647059,1.921496865,-10.1,6.42,2414,0.303595692,0.515768587,-1.77,2.04,2414
HOEM,2/1/94,-12.750625,6.805037277,-28.72,-1.34,224,-0.394241071,0.441560985,-1.83,0.62,224
HOEM,3/1/94,-24.86104839,5.738768551,-36.79,-12.92,248,-0.502258065,0.298302454,-1.18,0.06,248
HOEM,4/1/94,-20.5665,6.031299554,-32.92,-6.05,240,-0.496875,0.278361586,-1.27,0.04,240
HOEM,5/1/94,-30.11326613,6.305235616,-42.32,-14.69,248,-0.468548387,0.309055486,-1.34,0.06,248
HOEM,6/1/94,-25.40304167,7.198459179,-39.91,-8.59,240,-0.518166667,0.26861954,-1.12,-0.03,240
HOEM,7/1/94,-27.10725806,9.443204985,-41.59,-1.05,248,-0.566653226,0.232658654,-1.12,0.13,248
HOEM,8/1/94,-31.53625,8.522328238,-42.89,-9.81,248,-0.642258065,0.241165653,-1.23,-0.15,248
HOEM,9/1/94,-30.80620833,5.998343373,-39.33,-9.79,240,-0.669708333,0.331372697,-1.5,0.1,240
HOEM,10/1/94,-18.2953629,6.206715042,-32.51,-3.75,248,-0.49108871,0.348998602,-2.34,0.22,248
HOEM,11/1/94,-9.735513834,2.284486154,-15.75,2.38,1012,-0.052420949,0.22860686,-1.05,0.77,1012
HOEM,12/1/94,-3.122625448,2.340506637,-10.33,3.96,2232,0.08702509,0.170627873,-1.54,1.05,2232
HOEM,1/1/95,-3.109107223,1.88970255,-7.61,3.31,2229,0.105594437,0.237240208,-1.4,0.91,2229
HOEM,2/1/95,-7.200064484,4.723115528,-17.63,5.59,2016,-0.035441468,0.278129348,-2.01,1.26,2016
HOEM,3/1/95,-21.34666667,6.591240612,-33.85,-5.27,2232,-0.395918459,0.367865734,-3.16,1.04,2232
HOEM,4/1/95,-27.21856944,7.598420854,-42.31,-7.09,2160,-0.422273148,0.259860064,-1.69,0.12,2160
HOEM,5/1/95,-28.11770161,7.659380713,-40.25,-6.8,2232,-0.424507168,0.327204764,-2.07,0.17,2232
HOEM,6/1/95,-25.43552778,8.76254118,-41.9,-3.36,2160,-0.547949074,0.305346836,-1.97,0.23,2160
HOEM,7/1/95,-28.40487903,6.103677884,-38.89,-6.27,2232,-0.583207885,0.321656147,-1.97,0.09,2232
HOEM,8/1/95,-25.53655466,7.880890664,-39.14,-3.22,2232,-0.511765233,0.275552373,-1.75,0.14,2232
HOEM,9/1/95,-26.73821296,9.814428577,-43.98,-7.93,2160,-0.441486111,0.291020731,-1.72,0.2,2160
HOEM,10/1/95,-18.06576613,4.811122716,-29.4,-5.19,2232,-0.373109319,0.3540066,-2.62,1.44,2232
HOEM,11/1/95,-6.927974684,5.465033876,-23.53,3.6,2212,-0.105911602,0.277654679,-1.5,1.34,1991
HOEM,12/1/95,-0.857983871,2.138958633,-8.48,6.5,2976,0.03059375,0.219982809,-0.74,0.7,320
HOEM,1/1/96,-2.118741968,2.268506206,-8.16,4.94,2957,0.08777139,0.208260088,-1.57,1.24,2957
HOEM,2/1/96,-6.889608477,5.233291049,-18.36,4.09,2784,0.044471983,0.256353561,-1.58,2.12,2784
HOEM,3/1/96,-16.8363172,6.270653657,-27.85,3.65,2976,0.195698925,0.254276199,-1.74,2.55,2976
HOEM,4/1/96,-19.02209722,6.891276486,-31.53,-1.31,2880,0.327006944,0.256952103,-0.11,1.75,2880
HOEM,5/1/96,-26.40985551,7.157941064,-39.8,-8.96,2976,0.399237231,0.283781173,-0.12,1.67,2976
HOEM,6/1/96,-26.81038889,7.238674295,-38.12,-6.34,2880,0.387833333,0.241494622,-0.09,1.89,2880
HOEM,7/1/96,-27.35579973,8.16999603,-41.19,-7.07,2976,0.451528898,0.260751947,-0.11,1.73,2976
HOEM,8/1/96,-21.29391465,8.496332893,-34.39,1.66,2976,0.455194892,0.289531111,-0.1,1.74,2976
HOEM,9/1/96,-25.93945139,4.631173789,-35.91,-12.38,2880,0.552440972,0.316661521,-0.35,2.17,2880
HOEM,10/1/96,-20.68612567,6.160620771,-33.49,-7.66,2976,0.353205645,0.419764327,-2.53,3.63,2976
HOEM,11/1/96,-7.239885417,5.191913204,-22.74,5.45,2880,-0.018944444,0.289664615,-1.79,2.14,2880
HOEM,12/1/96,-0.917906586,1.734791863,-5.74,4.47,2976,-0.020047043,0.225322173,-1.21,1.21,2976
HOEM,1/1/97,-2.782780767,2.427902849,-7.61,3.6,2974,-0.001802286,0.265873488,-1.14,3.02,2974
HOEM,2/1/97,-10.51147693,4.45156956,-20.48,-1.11,2688,0.093869048,0.285863146,-1.24,1.74,2688
HOEM,3/1/97,-22.96328293,4.802661259,-33.24,-8.11,2976,0.423175403,0.391969512,-1.64,2.61,2976
HOEM,4/1/97,-27.85054514,6.816646937,-42.31,-5.7,2880,0.415222222,0.289242256,-0.18,1.96,2880
HOEM,5/1/97,-22.41561737,8.570530319,-39.16,-3.46,2948,0.367479647,0.230112448,-0.12,1.63,2948
HOEM,6/1/97,-22.58361111,8.72355269,-39.56,-5.96,2880,0.387239583,0.236139463,-0.13,1.51,2880
HOEM,7/1/97,-30.5190943,8.347154815,-42.85,-11.59,2948,0.47312076,0.264848484,-0.06,1.48,2948
HOEM,8/1/97,-31.90235215,8.777099299,-45.43,-10.83,2976,0.497718414,0.298689467,-0.16,2.65,2976
HOEM,9/1/97,-25.59093403,9.70420667,-41.54,0.48,2880,0.474947917,0.272822709,-0.91,1.63,2880
HOEM,10/1/97,-13.38355847,5.52807968,-29.39,-2.59,2976,0.211451613,0.257439446,-1.59,1.82,2976
HOEM,11/1/97,-3.408121086,5.834242225,-20.99,5.65,2874,0.066757133,0.234680264,-1.36,1.19,2874
HOEM,12/1/97,-3.141767473,3.148996794,-10.54,3.98,2976,0.046659946,0.281850905,-1.56,2.99,2976
HOEM,1/1/98,-3.45890457,2.567818551,-12.03,2.6,2976,0.083645833,0.296298477,-1.79,1.85,2976
HOEM,2/1/98,-7.77109747,4.133645967,-19,2.35,2688,0.198582589,0.369014267,-1.56,3.79,2688
HOEM,3/1/98,-19.81450628,4.932384724,-34.45,-7.48,2947,0.399935528,0.356536618,-1.46,2.34,2947
HOEM,4/1/98,-29.29997569,7.960397181,-43.41,-3.45,2880,0.517385417,0.293547142,-0.34,1.89,2880
HOEM,5/1/98,-24.58776546,7.803580101,-39.31,-2,2976,0.428306452,0.260903707,-0.09,1.59,2976
HOEM,6/1/98,-18.68345833,5.963827816,-31.49,-4.59,2880,0.388878472,0.23794585,-0.09,2.04,2880
HOEM,7/1/98,-25.87331653,8.07273461,-40.62,-7.69,2976,0.397916667,0.25239244,-0.13,1.54,2976
HOEM,8/1/98,-27.68086022,8.228690354,-39.8,-7.36,2976,0.517520161,0.260531905,-0.03,1.67,2976
HOEM,9/1/98,-31.58774653,7.420602009,-42.63,-2.16,2880,0.489795139,0.292197231,-0.5,2.13,2880
HOEM,10/1/98,-16.52745296,5.896821742,-30.42,-0.26,2976,0.263991935,0.305825334,-1.77,1.63,2976
HOEM,11/1/98,-9.155241403,4.817372885,-23.49,0.71,2879,0.083240709,0.241083857,-1.93,1.56,2879
HOEM,12/1/98,-2.101310484,2.914416008,-10.1,5.91,2976,0.008064516,0.198783402,-0.87,1.29,2976
HOEM,1/1/99,-1.163061156,2.147545749,-6.9,6.1,2976,0.001706989,0.233064299,-2.16,1.33,2976
HOEM,2/1/99,-8.240364583,4.873193341,-21.81,1.38,2688,0.032540923,0.280332187,-2.13,2,2688
HOEM,3/1/99,-21.10597446,5.702931812,-30.85,-5.01,2976,0.421965726,0.389155172,-2.12,3.55,2976
HOEM,4/1/99,-27.15290972,7.532345779,-39.72,-5.97,2880,0.373295139,0.238420201,-0.12,1.87,2880
HOEM,5/1/99,-29.35102823,8.492034667,-43.21,-5.12,2976,0.507419355,0.262983132,-0.05,1.97,2976
HOEM,6/1/99,-23.98455556,7.225805085,-36.96,-4.23,2880,0.380232639,0.267422145,-0.12,1.96,2880
HOEM,7/1/99,-22.69893145,8.620333149,-37.87,-5.86,2976,0.366377688,0.226356417,-0.08,1.86,2976
HOEM,8/1/99,-30.95449261,8.309595337,-43.59,-10.36,2976,0.526844758,0.324312057,-0.14,1.86,2976
HOEM,9/1/99,-22.48219097,8.157927979,-42.31,-0.19,2880,0.413333333,0.300011115,-0.59,1.98,2880
HOEM,10/1/99,-17.49920336,5.888917041,-32.21,-1.86,2975,0.262655462,0.312353273,-1.76,1.8,2975
HOEM,11/1/99,-6.388236111,3.904810885,-17.82,3.29,2880,-0.025402778,0.184784294,-1.15,0.72,2880
HOEM,12/1/99,-2.224919355,1.720597569,-7.28,2.96,2976,-0.119563172,0.198920813,-1.27,0.96,2976
HOEM,1/1/00,-3.171502016,2.35539114,-11.2,2.1,2976,-0.144086022,0.216309391,-0.93,0.76,2976
HOEM,2/1/00,-8.832191092,3.486307451,-18.34,-1.09,2784,-0.043516523,0.236107396,-1,1.41,2784
HOEM,3/1/00,-17.2756922,5.768245556,-31.24,-2.46,2976,0.225053763,0.260454542,-0.65,1.74,2976
HOEM,4/1/00,-20.97350347,6.838956885,-33.37,0.57,2880,0.264729167,0.175909475,-0.1,1.4,2880
HOEM,5/1/00,-25.9865625,7.725733155,-40.7,-6.22,2976,0.365927419,0.246612165,-0.07,1.5,2976
HOEM,6/1/00,-28.288625,10.64954265,-42.03,-1.17,2880,0.413333333,0.230053832,-0.13,1.43,2880
HOEM,7/1/00,-23.12512769,9.141546627,-43.36,-4.08,2976,0.290295699,0.169721809,-0.28,1.54,2976
HOEM,8/1/00,-26.05539688,8.675909433,-40.72,-5.55,2948,0.34843962,0.235025518,-0.26,1.76,2948
HOEM,9/1/00,-26.3911875,9.647371168,-40.25,-5.78,2880,0.387427083,0.25564338,-0.35,1.54,2880
HOEM,10/1/00,-21.82182124,5.391546939,-33.4,-9.5,2976,0.270557796,0.269079523,-0.68,1.93,2976
HOEM,11/1/00,-6.11362057,5.400514441,-24.07,4.11,2878,0.040364837,0.236220469,-2.2,2.01,2878
HOEM,12/1/00,-3.660688844,1.86693325,-8.25,1.82,2976,-0.155591398,0.170262041,-0.82,1.19,2976
HOEM,1/1/01,-5.493780242,2.179001697,-10.36,2.24,2976,-0.118797043,0.229263412,-0.94,1.49,2976
HOEM,2/1/01,-7.486179315,3.357336913,-16.49,4.33,2688,-0.013303571,0.225295625,-0.9,0.97,2688
HOEM,3/1/01,-21.67181452,5.707870963,-29.96,0.92,2976,0.231307124,0.242794941,-0.79,1.48,2976
HOEM,4/1/01,-24.07345833,6.890620215,-37.32,-4.67,2880,0.304385417,0.237974339,-0.12,1.42,2880
HOEM,5/1/01,-24.20726478,9.217368292,-38.64,-3.28,2976,0.340729167,0.205631569,-0.13,1.28,2976
HOEM,6/1/01,-22.93657639,7.641977294,-36.97,-2.96,2880,0.313059028,0.191542567,-0.12,1.33,2880
HOEM,7/1/01,-24.85841062,7.208138267,-41.17,-6.14,2976,0.374882392,0.212875281,-0.16,1.34,2976
HOEM,8/1/01,-35.24366935,6.118768628,-45.92,-17.07,2976,0.446861559,0.256595216,-0.31,2.61,2976
HOEM,9/1/01,-26.71341319,8.229373418,-41.14,-3.9,2880,0.548899306,0.281230247,-0.13,2.2,2880
HOEM,10/1/01,-18.43736223,6.886428987,-32.39,-2.83,2976,0.274858871,0.273961011,-0.62,2.41,2976
HOEM,11/1/01,-7.922871528,3.971838962,-19.79,0.93,2880,-0.100815972,0.225269999,-0.82,1.74,2880
HOEM,12/1/01,-0.706260081,3.063097256,-9.24,8.42,2976,-0.124327957,0.266762637,-1.1,0.79,2976
HOEM,1/1/02,-0.973023414,3.361787187,-8.53,9.63,2947,-0.063788187,0.271903386,-2.18,0.96,2946
HOEM,2/1/02,-7.455055804,3.829663742,-16.49,1.86,2688,-0.003095238,0.216391944,-0.69,0.95,2688
HOEM,3/1/02,-16.72189852,4.827294608,-27.27,-6.21,2976,0.159012097,0.199934355,-0.55,1.49,2976
HOEM,4/1/02,-23.28183333,7.653907699,-34.63,-5.73,2880,0.28184375,0.169942995,-0.08,1.34,2880
HOEM,5/1/02,-20.28242608,7.274674645,-34.72,-3.77,2976,0.248581989,0.224444199,-0.24,1.46,2976
HOEM,6/1/02,-30.75969097,7.702489108,-42.33,-8.45,2880,0.33134375,0.219741946,-0.14,1.53,2880
HOEM,7/1/02,-32.08020833,7.944629767,-42.59,-9.53,2976,0.408299731,0.238322144,-0.25,2.6,2976
HOEM,8/1/02,-33.16950941,7.884677921,-44.59,-9.44,2976,0.382019489,0.260572842,-0.07,1.89,2976
HOEM,9/1/02,-24.77456597,7.28918223,-40.81,-4.77,2880,0.449003472,0.342260755,-0.13,2.2,2880
HOEM,10/1/02,-19.66829637,5.141153102,-30.64,-4.84,2976,0.323665995,0.31378176,-0.53,2.45,2976
HOEM,11/1/02,-10.60332639,2.551615806,-17.39,-1.34,2880,-0.01478125,0.216084759,-0.69,1.59,2880
HOEM,12/1/02,-4.263847446,2.969592511,-12.46,2.41,2976,-0.167913306,0.185501855,-1.28,0.79,2976
HOEM,1/1/03,-1.537526882,2.644876372,-7.67,5.13,2976,-0.084018817,0.216431358,-0.78,0.9,2976
HOEM,2/1/03,-8.004590774,2.798707538,-15.29,-0.21,2688,-0.048642113,0.203483566,-0.84,0.8,2688
HOEM,3/1/03,-19.82755712,6.039128535,-31.5,-5.07,2976,0.315443548,0.273203845,-1.08,2.1,2976
HOEM,4/1/03,-27.1934375,6.45545457,-38.43,-2.35,2880,0.403104167,0.27951283,-0.08,1.55,2880
HOEM,5/1/03,-20.42776546,8.922313289,-34.07,1.39,2976,0.300393145,0.219763081,-0.12,1.51,2976
HOEM,6/1/03,-25.68414931,6.397412009,-37.17,-7.37,2880,0.336465278,0.240277147,-0.24,2.34,2880
HOEM,7/1/03,-23.79122312,6.760182991,-39.72,-9.28,2976,0.376102151,0.281344542,-0.11,1.88,2976
HOEM,8/1/03,-31.71557124,6.556516456,-43.17,-8.43,2976,0.429616935,0.302910566,-0.25,2.04,2976
HOEM,9/1/03,-24.20008681,8.425166746,-41.97,-8.15,2880,0.378520833,0.336564534,-0.2,2.15,2880
HOEM,10/1/03,-15.55355175,4.264723879,-28.68,-5.26,2976,0.211048387,0.246938314,-0.96,1.17,2976
HOEM,11/1/03,-9.288697917,3.007149107,-18.8,0.53,2880,-0.058868056,0.241936231,-1.07,1.26,2880
HOEM,12/1/03,-1.911629704,2.943529385,-9.3,5.67,2976,-0.052510081,0.224159419,-0.85,1.35,2976
HOEM,1/1/04,-3.501314286,2.56074859,-10.45,5.62,2975,-0.153623529,0.235102131,-2.38,0.92,2975
HOEM,2/1/04,-9.586785201,3.570546596,-20.35,-1.31,2784,-0.004134339,0.270563029,-1.07,1.74,2784
HOEM,3/1/04,-24.28667339,4.749910714,-34.08,-10.86,2976,0.400524194,0.331325823,-1.2,1.92,2976
HOEM,4/1/04,-25.39727778,5.94208194,-36.97,-9.63,2880,0.501972222,0.313824351,-0.11,1.85,2880
HOEM,5/1/04,-27.52964382,8.849911137,-41.66,-2.42,2976,0.414294355,0.254675749,-0.08,1.99,2976
HOEM,6/1/04,-23.78009375,8.561771656,-40.31,-3.17,2880,0.302947917,0.247737993,-0.29,1.63,2880
HOEM,7/1/04,-35.46678091,6.958175105,-46.5,-8.39,2976,0.364267473,0.227296721,-0.14,1.54,2976
HOEM,8/1/04,-31.11929772,7.181192711,-42.91,-6.95,2976,0.407217742,0.291615934,-0.31,1.72,2976
HOEM,9/1/04,-28.77660417,5.692195122,-37.37,-11.09,2880,0.388972222,0.270948803,-0.15,2.38,2880
HOEM,10/1/04,-19.9187332,7.891562113,-40.79,-4.25,2976,0.346549059,0.348011329,-0.76,1.98,2976
HOEM,11/1/04,-6.328788194,4.351780154,-17.67,2.97,2880,-0.079878472,0.24627863,-1.6,1.21,2880
HOEM,12/1/04,-1.135174731,1.807986029,-8.13,3.49,2976,-0.116673387,0.207933463,-0.9,1.56,2976
HOEM,1/1/05,-2.150299059,2.662232881,-9.24,7.94,2976,-0.105967742,0.222691265,-0.71,1.11,2976
HOEM,2/1/05,-8.968790923,4.721425701,-22.22,2.29,2688,0.061755952,0.28723112,-0.71,1.88,2688
HOEM,3/1/05,-19.74587702,4.627724566,-28.3,-4.52,2976,0.365793011,0.284582861,-0.4,1.51,2976
HOEM,4/1/05,-27.76410417,6.107960717,-38.06,-11.83,2880,0.346263889,0.263870251,-0.14,1.71,2880
HOEM,5/1/05,-22.77604839,7.74628607,-38.24,-5.59,2976,0.331831317,0.216496721,-0.09,2.19,2976
HOEM,6/1/05,-27.90841319,8.663671142,-43,-2.4,2880,0.328875,0.253581744,-0.23,1.81,2880
HOEM,7/1/05,-28.28929099,9.250507522,-42.79,-1.1,2976,0.474727823,0.329678723,-0.06,2.59,2976
HOEM,8/1/05,-29.61754368,8.347772658,-45.78,-7.05,2976,0.318007392,0.266467766,-0.35,2.21,2976
HOEM,9/1/05,-26.81507986,8.639540458,-40.45,3.97,2880,0.578600694,0.300674511,-0.1,2.45,2880
HOEM,10/1/05,-16.78910282,6.898960694,-30.47,-3.15,2976,0.176602823,0.220785119,-0.74,1.2,2976
HOEM,11/1/05,-7.878677083,2.812235662,-15.23,-0.16,2880,-0.130711806,0.209015158,-0.84,1.93,2880
HOEM,12/1/05,-1.281575941,1.92447323,-8.08,4.24,2976,-0.156979167,0.206053222,-1,0.97,2976
HOEM,1/1/06,-2.378017473,2.137206274,-8.58,5.29,2976,-0.14515793,0.22399034,-0.85,1.42,2976
HOEM,2/1/06,-8.322459077,3.494540462,-23.98,-1.78,2688,0.032414435,0.291476376,-0.72,1.63,2688
HOEM,3/1/06,-20.00408938,5.240289803,-32.58,-5.12,2976,0.260567876,0.273083938,-0.47,2.12,2976
HOEM,4/1/06,-29.54533681,6.178918373,-40.35,-10.01,2880,0.404878472,0.276921847,-0.2,2.03,2880
HOEM,5/1/06,-30.11636089,9.223496089,-42.01,-1.55,2976,0.326706989,0.237293088,-0.28,1.63,2976
HOEM,6/1/06,-22.90655903,9.744784906,-39.83,-3.22,2880,0.336322917,0.224279294,-0.12,1.27,2880
HOEM,7/1/06,-34.69339718,6.610194219,-43.36,-10.43,2976,0.580288978,0.309766055,-0.08,2.01,2976
HOEM,8/1/06,-20.71392809,6.77647262,-32.78,-4.87,2976,0.339324597,0.276272513,-0.17,1.78,2976
HOEM,9/1/06,-23.88141667,8.755806906,-38.55,-4.01,2880,0.309559028,0.267700732,-0.23,1.59,2880
HOEM,10/1/06,-21.31126344,4.9857129,-32.83,-6.02,2976,0.34593078,0.316578357,-0.87,1.57,2976
HOEM,11/1/06,-9.02775,5.481165725,-22.15,1.35,2880,0.117534722,0.377849758,-1.09,2.11,2880
HOEM,12/1/06,-3.855080645,2.79390104,-10.53,3.29,2976,-0.167426075,0.189859642,-1.02,0.68,2976
HOEM,1/1/07,-0.026031586,1.745748375,-5.14,6.52,2976,-0.026055108,0.241573614,-0.99,1.17,2976
HOEM,2/1/07,-9.595885417,5.352085803,-25.96,-0.26,2688,-0.001168155,0.28621234,-0.98,1.8,2688
HOEM,3/1/07,-18.92528898,6.035566539,-29.93,-1.59,2976,0.261854839,0.256593038,-0.75,1.5,2976
HOEM,4/1/07,-24.75395833,7.421655828,-39.16,-6.84,2880,0.377611111,0.272031813,-0.11,1.93,2880
HOEM,5/1/07,-21.7131922,8.239994547,-36.06,-3.3,2976,0.446310484,0.277276847,-0.32,1.72,2976
HOEM,6/1/07,-20.71247222,8.018732328,-38.67,-1.92,2880,0.297003472,0.191679693,-0.11,1.37,2880
HOEM,7/1/07,-23.55927419,7.983873074,-39.67,-4.1,2976,0.345601478,0.193902447,-0.17,2.09,2976
HOEM,8/1/07,-23.67772849,7.021299955,-36.97,-0.33,2976,0.337664651,0.219359089,-0.23,1.56,2976
HOEM,9/1/07,-21.39999653,5.923058892,-34.72,-4.87,2880,0.285673611,0.207763269,-0.13,1.73,2880
HOEM,10/1/07,-20.82002688,5.615398972,-35.8,-7.63,2976,0.257563844,0.351652826,-0.65,3.36,2976
HOEM,11/1/07,-9.601368056,6.900280698,-31.4,-0.27,2880,0.078333333,0.341800394,-0.8,3.3,2880
HOEM,12/1/07,-2.025751261,3.42888003,-10.58,5.88,2975,-0.082063866,0.217163756,-1.04,0.78,2975
HOEM,1/1/08,-1.93249664,2.18376823,-7.57,3.3,2976,-0.066797715,0.214181563,-1.23,0.97,2976
HOEM,2/1/08,-9.827758621,3.426976514,-17.52,-1.4,2784,-0.03981681,0.171547465,-0.58,1.55,2784
HOEM,3/1/08,-18.36966734,7.423805606,-30.14,2.37,2976,0.210342742,0.204020472,-0.43,1.81,2976
HOEM,4/1/08,-20.81937847,6.01558423,-30.95,-3.34,2880,0.306353426,0.212202188,-0.1,2,2671
HOEM,5/1/08,-25.33341062,6.920315509,-37.69,-4.75,2976,0.368176926,0.227238764,-0.06,1.93,2973
HOEM,6/1/08,-18.58188194,7.151683479,-32.51,-2.09,2880,0.233178025,0.161188362,-0.12,1.09,2876
HOEM,7/1/08,-29.7665121,7.826631227,-41.06,-6.81,2976,0.404159946,0.236490943,-0.16,2,2976
HOEM,8/1/08,-34.57148522,5.906137074,-44.28,-13.94,2976,0.40687164,0.262670433,-0.19,1.93,2976
HOEM,9/1/08,-18.47463542,7.587254926,-39.05,-5.55,2880,0.299746528,0.173071385,-0.23,1.32,2880
HOEM,10/1/08,-17.89007392,4.610869678,-28.91,-5.75,2976,0.079872312,0.2156698,-0.74,1.25,2976
HOEM,11/1/08,-9.684017361,4.104476373,-19.12,1.01,2880,-0.194614583,0.213617165,-1.1,2.13,2880
HOEM,12/1/08,-1.867735215,2.430620555,-8.53,5.29,2976,-0.212997312,0.210464444,-1.2,1.09,2976
HOEM,1/1/09,-2.307533602,2.147819085,-8.15,3.14,2976,-0.145060484,0.240877101,-1.54,1.07,2976
HOEM,2/1/09,-11.73669271,6.178021385,-25.58,-1.37,2688,0.045900298,0.304285616,-1.09,2.16,2688
HOEM,3/1/09,-21.66807124,5.398601149,-30.58,-4.99,2976,0.382405914,0.319167917,-0.54,1.92,2976
HOEM,4/1/09,-19.09209028,6.595679246,-32.34,-7.09,2880,0.322795139,0.287271482,-0.09,2.28,2880
HOEM,5/1/09,-25.88983535,9.06535102,-40.23,-5.05,2976,0.398608871,0.257937417,-0.12,1.59,2976
HOEM,6/1/09,-24.22652431,8.705067472,-40.93,-4.63,2880,0.359,0.208172818,-0.09,2.69,2880
HOEM,7/1/09,-26.07196237,8.678363342,-42.48,-3.41,2976,0.337163978,0.255431001,-0.15,2.29,2976
HOEM,8/1/09,-27.98432796,8.05346985,-42.45,-11.28,2976,0.315655242,0.24779927,-0.22,2.2,2976
HOEM,9/1/09,-25.75545833,8.985364036,-43.31,-0.93,2880,0.437144876,0.299419924,-0.28,1.83,2830
HOEM,10/1/09,-20.09958333,5.031374528,-31.61,-4.1,2976,0.171918683,0.259770904,-0.55,1.16,2976
HOEM,11/1/09,-6.275510417,4.99064751,-21.48,5.56,2880,0.080465278,0.346427596,-1.09,2.34,2880
HOEM,12/1/09,-2.241149194,2.150193509,-7.8,4.16,2976,-0.227671371,0.226252601,-1.51,0.62,2976
HOEM,1/1/10,-2.68828293,2.011686255,-7.99,2.79,2976,-0.157792339,0.233645566,-1.27,1.36,2976
HOEM,2/1/10,-8.854810268,4.530017631,-21.23,1.29,2688,0.032786458,0.292791087,-0.84,1.5,2688
HOEM,3/1/10,-18.01960013,7.075500612,-33.51,-1.1,2976,0.227765457,0.287961155,-0.56,1.63,2976
HOEM,4/1/10,-22.03508681,5.20118982,-31.42,-6.8,2880,0.33975,0.249774209,-0.18,2.15,2880
HOEM,5/1/10,-26.15300739,8.396723018,-42.21,-7.87,2976,0.373155242,0.255743879,-0.11,2.01,2976
HOEM,6/1/10,-27.47576736,6.618466873,-38.98,-7.53,2880,0.480326389,0.276185055,-0.05,1.94,2880
HOEM,7/1/10,-29.36926075,8.298961311,-45.31,-10.13,2976,0.456754032,0.321002654,-0.14,2.11,2976
HOEM,8/1/10,-28.56844086,7.969946102,-41.68,-8.03,2976,0.450601478,0.342034459,-0.19,2.02,2976
HOEM,9/1/10,-28.85682986,6.939170526,-43.13,-10.74,2880,0.447666667,0.354136436,-0.1,2.46,2880
HOEM,10/1/10,-17.8361828,4.744871511,-35.08,-1.68,2976,0.210530914,0.272802672,-1.1,3.22,2976
HOEM,11/1/10,-6.749221682,2.973861407,-14.95,4.4,2878,-0.098541667,0.290797896,-1.79,0.84,2880